Location: Vancouver
(49.2500°N, 123.1330°W)
Time: 14:22:54
(UTC-08:00)

Iridium 21 - Visible Passes

Search period start: 13 December 2017 00:00
Search period end: 23 December 2017 00:00
Orbit: 776 x 779 km, 86.4° (Epoch: 13 December)

Date Brightness Start Highest point End Pass type
(mag) Time Alt. Az. Time Alt. Az. Time Alt. Az.
13 Dec 8.1 04:08:29 11° NNE 04:08:29 11° NNE 04:08:47 10° NNE visible
13 Dec 7.5 05:49:01 13° NNW 05:49:01 13° NNW 05:49:37 10° N visible
13 Dec 8.2 17:46:50 10° NW 17:50:04 17° WNW 17:53:16 10° WSW visible
14 Dec 7.6 17:12:29 10° NNW 17:16:51 28° W 17:21:13 10° SW visible
16 Dec 8.4 17:47:58 10° NW 17:49:55 12° WNW 17:51:50 10° W visible
17 Dec 8.1 17:13:01 10° NNW 17:16:47 20° WNW 17:20:33 10° SW visible
20 Dec 8.2 17:13:48 10° NW 17:16:40 15° WNW 17:19:32 10° WSW visible
